EW5212 Weather Reports


time (UTC)temp
C
wind
direction
speed
KPH
gust
KPH
rain 1hr
cm
rain 24hr
cm
rain mn
cm
humidity
%
barometer
mb
20260505235017 25 90 3.2 6.4 0.00 0.00 0.00 48 1012.4
20260505234017 25 90 1.6 6.4 0.00 0.00 0.00 47 1012.4
20260505233016 26 90 3.2 8.0 0.00 0.00 0.00 46 1012.4
20260505232037 26 90 1.6 4.8 0.00 0.00 0.00 45 1012.4
20260505231017 26 338 1.6 11.3 0.00 0.00 0.00 44 1012.3
20260505230017 26 90 1.6 6.4 0.00 0.00 0.00 43 1012.4
20260505225017 27 270 1.6 6.4 0.00 0.00 0.00 40 1012.4
20260505224036 27 270 3.2 11.3 0.00 0.00 0.00 39 1012.4
20260505223017 27 0 4.8 14.5 0.00 0.00 0.00 39 1012.4
20260505222017 27 90 3.2 9.7 0.00 0.00 0.00 39 1012.4
20260505221017 27 270 4.8 19.3 0.00 0.00 0.00 37 1012.5
20260505220017 28 338 3.2 12.9 0.00 0.00 0.00 37 1012.3
20260505215017 28 293 3.2 11.3 0.00 0.00 0.00 36 1012.3
20260505214016 27 293 4.8 17.7 0.00 0.00 0.00 36 1012.3
20260505213016 28 270 9.7 22.5 0.00 0.00 0.00 34 1012.3
20260505212016 28 0 4.8 12.9 0.00 0.00 0.00 35 1012.1
20260505211017 28 0 6.4 16.1 0.00 0.00 0.00 35 1012.2
20260505210017 28 90 6.4 22.5 0.00 0.00 0.00 35 1012.3
20260505205017 28 315 4.8 16.1 0.00 0.00 0.00 35 1012.4
20260505204017 28 270 4.8 16.1 0.00 0.00 0.00 35 1012.1
20260505203016 29 293 8.0 20.9 0.00 0.00 0.00 34 1012.1
20260505202016 30 270 4.8 11.3 0.00 0.00 0.00 34 1012.2
20260505201016 29 270 6.4 20.9 0.00 0.00 0.00 33 1012.4
20260505200017 30 293 6.4 12.9 0.00 0.00 0.00 33 1012.5
20260505195016 30 68 8.0 32.2 0.00 0.00 0.00 32 1012.7
20260505194016 30 45 4.8 16.1 0.00 0.00 0.00 35 1012.7
20260505193016 30 293 3.2 11.3 0.00 0.00 0.00 35 1012.8
20260505192016 30 293 6.4 29.0 0.00 0.00 0.00 33 1013.0
20260505191036 30 23 4.8 16.1 0.00 0.00 0.00 33 1013.0
20260505190036 30 90 4.8 14.5 0.00 0.00 0.00 33 1013.3
20260505185016 30 0 4.8 16.1 0.00 0.00 0.00 34 1013.2
20260505184016 30 45 3.2 8.0 0.00 0.00 0.00 33 1013.5
20260505183036 30 270 4.8 20.9 0.00 0.00 0.00 35 1013.3
20260505182016 29 315 6.4 25.7 0.00 0.00 0.00 34 1013.7
20260505181016 29 113 4.8 11.3 0.00 0.00 0.00 35 1013.7
20260505180017 29 293 4.8 12.9 0.00 0.00 0.00 36 1013.8
20260505175016 28 270 4.8 14.5 0.00 0.00 0.00 40 1013.9
20260505174016 28 23 4.8 16.1 0.00 0.00 0.00 39 1014.1
20260505173036 28 270 4.8 11.3 0.00 0.00 0.00 41 1014.0
20260505172016 28 90 3.2 19.3 0.00 0.00 0.00 42 1014.1
20260505171036 28 270 3.2 9.7 0.00 0.00 0.00 43 1014.2
20260505170056 28 68 4.8 11.3 0.00 0.00 0.00 43 1014.4
20260505165016 28 270 3.2 11.3 0.00 0.00 0.00 43 1014.4
20260505164016 28 45 3.2 9.7 0.00 0.00 0.00 43 1014.5
20260505163016 28 293 3.2 8.0 0.00 0.00 0.00 44 1014.6
20260505162016 27 45 3.2 8.0 0.00 0.00 0.00 45 1014.8
20260505161016 27 90 4.8 11.3 0.00 0.00 0.00 47 1015.0
20260505153016 26 90 3.2 8.0 0.00 0.00 0.00 50 1015.5
20260505152016 26 23 1.6 9.7 0.00 0.00 0.00 51 1015.5
20260505151016 25 90 3.2 11.3 0.00 0.00 0.00 52 1015.4
20260505125016 17 270 1.6 9.7 0.00 0.00 0.00 71 1015.4
20260505124016 17 270 3.2 8.0 0.00 0.00 0.00 73 1015.4
20260505123017 16 270 1.6 6.4 0.00 0.00 0.00 74 1015.5
20260505122016 16 270 1.6 8.0 0.00 0.00 0.00 74 1015.4
20260505121016 16 293 3.2 12.9 0.00 0.00 0.00 75 1015.3
20260505120017 16 293 1.6 8.0 0.00 0.00 0.00 75 1015.3
20260505115016 16 315 1.6 4.8 0.00 0.00 0.00 76 1015.2
20260505114016 16 270 1.6 8.0 0.00 0.00 0.00 76 1015.1
20260505113016 15 270 1.6 6.4 0.00 0.00 0.00 77 1015.0
20260505112016 15 293 1.6 4.8 0.00 0.00 0.00 77 1015.0
20260505111016 15 293 1.6 8.0 0.00 0.00 0.00 77 1014.9
20260505102016 15 0.0 3.2 0.00 0.00 0.00 77 1014.5
20260505101016 15 293 1.6 4.8 0.00 0.00 0.00 76 1014.4
20260505100015 15 270 1.6 9.7 0.00 0.00 0.00 76 1014.5
20260505095016 15 270 1.6 8.0 0.00 0.00 0.00 75 1014.5
20260505094016 16 270 1.6 4.8 0.00 0.00 0.00 74 1014.5
20260505093016 16 0.0 6.4 0.00 0.00 0.00 74 1014.4
20260505092016 16 270 1.6 8.0 0.00 0.00 0.00 74 1014.5
20260505091016 16 293 3.2 8.0 0.00 0.00 0.00 73 1014.3
20260505090016 16 338 1.6 6.4 0.00 0.00 0.00 73 1014.3
20260505085036 16 270 3.2 11.3 0.00 0.00 0.00 72 1014.3
20260505084016 16 270 1.6 9.7 0.00 0.00 0.00 72 1014.4
20260505083015 16 270 3.2 9.7 0.00 0.00 0.00 71 1014.3
20260505082036 17 270 1.6 6.4 0.00 0.00 0.00 71 1014.2
20260505081036 17 270 3.2 12.9 0.00 0.00 0.00 70 1014.2
20260505080036 17 270 1.6 9.7 0.00 0.00 0.00 70 1014.2
20260505075016 17 293 1.6 6.4 0.00 0.00 0.00 69 1014.2
20260505074056 17 293 1.6 4.8 0.00 0.00 0.00 68 1014.2
20260505073016 17 0.0 4.8 0.00 0.00 0.00 67 1014.1
20260505072016 17 270 1.6 4.8 0.00 0.00 0.00 66 1014.0
20260505071016 17 248 1.6 8.0 0.00 0.00 0.00 66 1013.8
20260505070016 17 0.0 4.8 0.00 0.00 0.00 65 1013.9
20260505065015 17 270 1.6 8.0 0.00 0.00 0.00 64 1013.7
20260505064016 17 270 1.6 8.0 0.00 0.00 0.00 63 1013.8
20260505063016 17 293 3.2 11.3 0.00 0.00 0.00 63 1013.7
20260505062016 17 270 1.6 8.0 0.00 0.00 0.00 62 1013.6
20260505061015 18 293 1.6 8.0 0.00 0.00 0.00 61 1013.7
20260505060015 18 293 1.6 3.2 0.00 0.00 0.00 60 1013.7
20260505055016 18 68 1.6 6.4 0.00 0.00 0.00 59 1013.8
20260505054016 18 0.0 4.8 0.00 0.00 0.00 58 1013.8
20260505053016 18 0.0 3.2 0.00 0.00 0.00 57 1013.7
20260505052035 18 270 1.6 6.4 0.00 0.00 0.00 57 1013.8
20260505051015 19 270 1.6 8.0 0.00 0.00 0.00 56 1013.7
20260505041016 18 0.0 0.0 0.00 0.00 0.00 57 1013.3
20260505040015 18 0.0 4.8 0.00 0.00 0.00 57 1013.2
20260505035015 18 0.0 1.6 0.00 0.00 0.00 58 1013.2
20260505034015 17 0.0 0.0 0.00 0.00 0.00 60 1013.2
20260505033015 17 0.0 0.0 0.00 0.00 0.00 61 1013.3
20260505032035 17 0.0 0.0 0.00 0.00 0.00 62 1013.3
20260505031015 18 0.0 0.0 0.00 0.00 0.00 60 1013.2
20260505030015 18 0.0 0.0 0.00 0.00 0.00 60 1013.4
20260505025035 19 0.0 0.0 0.00 0.00 0.00 59 1013.4
20260505024015 20 0.0 0.0 0.00 0.00 0.00 56 1013.4
20260505023015 20 0.0 1.6 0.00 0.00 0.00 54 1013.3
20260505022015 20 0.0 3.2 0.00 0.00 0.00 54 1013.2
20260505021015 20 0.0 1.6 0.00 0.00 0.00 53 1013.2
20260505020015 20 0.0 1.6 0.00 0.00 0.00 53 1013.3
20260505015015 20 0.0 0.0 0.00 0.00 0.00 53 1013.2
20260505014015 20 0.0 4.8 0.00 0.00 0.00 51 1013.1
20260505013015 21 0.0 4.8 0.00 0.00 0.00 51 1013.0
20260505012017 21 0.0 0.0 0.00 0.00 0.00 50 1012.8
20260505011017 21 0.0 1.6 0.00 0.00 0.00 49 1012.7
20260505010017 21 0.0 4.8 0.00 0.00 0.00 48 1012.6
20260505005017 22 0.0 0.0 0.00 0.00 0.00 47 1012.5
20260505004017 22 90 1.6 4.8 0.00 0.00 0.00 47 1012.4
20260505003017 22 270 1.6 9.7 0.00 0.00 0.00 46 1012.5
20260505002017 22 0.0 0.0 0.00 0.00 0.00 47 1012.5
20260505001017 22 0.0 4.8 0.00 0.00 0.00 46 1012.3
20260505000037 22 293 1.6 6.4 0.00 0.00 0.00 45 1012.6